Rome Ciampino, Italy

10:01 PM CEST on May 24, 2017 (GMT +0200)
Ciampino

Weather History for LIRA - September, 2013

Change the Weather History Date:

Sunday, September 29, 2013

  Actual Average Record
Temperature  
Mean Temperature 70 °F -  
Max Temperature 77 °F 71 °F 89 °F (2012)
Min Temperature 64 °F 51 °F 48 °F (2002)
Cooling Degree Days 6    
Growing Degree Days 20 (Base 50)    
Moisture  
Dew Point 66 °F    
Average Humidity 88    
Maximum Humidity 100    
Minimum Humidity 74    
Precipitation  
Precipitation 0.00 in 0.12 in - ()
Sea Level Pressure  
Sea Level Pressure 29.79 in    
Wind  
Wind Speed 7 mph ()    
Max Wind Speed 22 mph    
Max Gust Speed 34 mph    
Visibility 6.0 miles    
Events Rain , Thunderstorm    
Averages and records for this station are not official NWS values.
T = Trace of Precipitation, MM = Missing Value Source: Averaged Metar Reports

Daily Weather History Graph

Daily Weather History Graph

Search for Another Location

Airport or City:

Trip Planner

Search our weather history database for the weather conditions in past years. The results will help you decide how hot, cold, wet, or windy it might be!

Date:

Astronomy

Sep. 29, 2013 Rise Set
Actual Time 7:04 AM CEST 6:54 PM CEST
Civil Twilight 6:36 AM CEST 7:22 PM CEST
Nautical Twilight 6:04 AM CEST 7:54 PM CEST
Astronomical Twilight 5:31 AM CEST 8:27 PM CEST
Moon 1:26 AM CEST (9/29) 3:44 PM CEST (9/29)
Length of Visible Light 12h 45m
Length of Day
11h 50m
Waning Crescent, 29% of the Moon is Illuminated
Sep 29
Waning Crescent
Oct 5
New
Oct 12
First Quarter
Oct 19
Full
Oct 27
Last Quarter

Hourly Weather History & Observations

Time (CEST) Temp. Dew Point Humidity Pressure Visibility Wind Dir Wind Speed Gust Speed Precip Events Conditions
12:15 AM 64.4 °F 62.6 °F 94% 29.89 in 6.2 mi Calm Calm - N/A   Scattered Clouds
12:45 AM 64.4 °F 62.6 °F 94% 29.89 in 6.2 mi SE 3.5 mph - N/A   Scattered Clouds
1:15 AM 64.4 °F 62.6 °F 94% 29.89 in 6.2 mi SE 2.3 mph - N/A   Scattered Clouds
1:45 AM 64.4 °F 62.6 °F 94% 29.89 in 6.2 mi East 1.2 mph - N/A   Scattered Clouds
2:15 AM 64.4 °F 62.6 °F 94% 29.89 in 6.2 mi SE 3.5 mph - N/A   Scattered Clouds
2:45 AM 64.4 °F 62.6 °F 94% 29.89 in 6.2 mi WSW 2.3 mph - N/A   Scattered Clouds
3:15 AM 66.2 °F 64.4 °F 94% 29.89 in 6.2 mi SSE 5.8 mph - N/A   Scattered Clouds
3:45 AM 66.2 °F 64.4 °F 94% 29.86 in 6.2 mi ESE 6.9 mph - N/A   Scattered Clouds
4:15 AM 66.2 °F 64.4 °F 94% 29.86 in 6.2 mi ENE 2.3 mph - N/A   Scattered Clouds
4:45 AM 66.2 °F 64.4 °F 94% 29.86 in 6.2 mi East 1.2 mph - N/A   Scattered Clouds
5:15 AM 66.2 °F 64.4 °F 94% 29.86 in 6.2 mi Calm Calm - N/A   Scattered Clouds
5:45 AM 64.4 °F 64.4 °F 100% 29.86 in 6.2 mi East 5.8 mph - N/A   Scattered Clouds
6:15 AM 64.4 °F 64.4 °F 100% 29.83 in 6.2 mi NE 1.2 mph - N/A   Scattered Clouds
6:45 AM 64.4 °F 62.6 °F 94% 29.86 in 6.2 mi East 3.5 mph - N/A   Mostly Cloudy
7:15 AM 64.4 °F 62.6 °F 94% 29.83 in 6.2 mi NNW 1.2 mph - N/A   Mostly Cloudy
7:45 AM 66.2 °F 64.4 °F 94% 29.83 in 6.2 mi ESE 4.6 mph - N/A   Mostly Cloudy
8:15 AM 68.0 °F 64.4 °F 88% 29.83 in 6.2 mi SE 9.2 mph - N/A   Mostly Cloudy
8:45 AM 71.6 °F 64.4 °F 78% 29.80 in 6.2 mi SSE 9.2 mph - N/A   Scattered Clouds
9:15 AM 71.6 °F 64.4 °F 78% 29.80 in 6.2 mi SSE 13.8 mph - N/A   Scattered Clouds
9:45 AM 71.6 °F 64.4 °F 78% 29.83 in 6.2 mi South 12.7 mph - N/A   Mostly Cloudy
10:15 AM 73.4 °F 66.2 °F 78% 29.83 in 6.2 mi SSE 16.1 mph - N/A   Mostly Cloudy
10:45 AM 73.4 °F 66.2 °F 78% 29.83 in 6.2 mi SSE 10.4 mph - N/A   Mostly Cloudy
11:15 AM 73.4 °F 66.2 °F 78% 29.83 in 6.2 mi SSE 15.0 mph - N/A   Mostly Cloudy
11:45 AM 73.4 °F 66.2 °F 78% 29.83 in 6.2 mi SSE 18.4 mph - N/A   Mostly Cloudy
12:15 PM 73.4 °F 66.2 °F 78% 29.83 in 6.2 mi SSE 16.1 mph - N/A   Mostly Cloudy
12:45 PM 73.4 °F 68.0 °F 83% 29.77 in 6.2 mi SE 17.3 mph - N/A   Light Drizzle
1:15 PM 73.4 °F 68.0 °F 83% 29.77 in 6.2 mi SE 13.8 mph - N/A   Mostly Cloudy
1:45 PM 73.4 °F 66.2 °F 78% 29.77 in 6.2 mi SSE 6.9 mph - N/A   Mostly Cloudy
2:15 PM 73.4 °F 66.2 °F 78% 29.77 in 6.2 mi SSE 13.8 mph 25.3 mph N/A   Mostly Cloudy
2:45 PM 75.2 °F 69.8 °F 83% 29.77 in 6.2 mi SSE 20.7 mph 34.5 mph N/A   Scattered Clouds
3:15 PM 77.0 °F 69.8 °F 78% 29.74 in 6.2 mi SSE 21.9 mph - N/A   Partly Cloudy
3:45 PM 77.0 °F 68.0 °F 74% 29.71 in 6.2 mi SSE 20.7 mph - N/A   Scattered Clouds
4:15 PM 75.2 °F 68.0 °F 78% 29.71 in 6.2 mi SE 18.4 mph - N/A   Scattered Clouds
4:45 PM 75.2 °F 69.8 °F 83% 29.71 in 6.2 mi SSE 17.3 mph - N/A   Mostly Cloudy
5:15 PM 75.2 °F 69.8 °F 83% 29.71 in 6.2 mi South 19.6 mph - N/A   Scattered Clouds
5:45 PM 73.4 °F 69.8 °F 88% 29.71 in 6.2 mi SSE 18.4 mph - N/A   Scattered Clouds
6:15 PM 71.6 °F 69.8 °F 94% 29.71 in 5.0 mi SSE 16.1 mph - N/A Rain Light Rain
6:45 PM 71.6 °F 68.0 °F 88% 29.71 in 6.2 mi South 13.8 mph - N/A   Scattered Clouds
7:15 PM 69.8 °F 68.0 °F 94% 29.71 in 5.0 mi South 13.8 mph - N/A Rain , Thunderstorm Light Thunderstorms and Rain
7:45 PM 69.8 °F 68.0 °F 94% 29.71 in 5.0 mi South 11.5 mph - N/A Rain , Thunderstorm Light Thunderstorms and Rain
8:15 PM 69.8 °F 68.0 °F 94% 29.71 in 5.0 mi SSE 10.4 mph - N/A Thunderstorm Thunderstorm
8:45 PM 69.8 °F 68.0 °F 94% 29.71 in 5.0 mi SSE 13.8 mph - N/A Rain Light Rain
9:15 PM 69.8 °F 68.0 °F 94% 29.71 in 6.2 mi SSE 12.7 mph - N/A Rain Light Rain
9:45 PM 68.0 °F 68.0 °F 100% 29.71 in 2.5 mi South 12.7 mph 32.2 mph N/A Rain , Thunderstorm Thunderstorms and Rain
10:15 PM 68.0 °F 66.2 °F 94% 29.71 in 5.0 mi South 8.1 mph - N/A Rain , Thunderstorm Light Thunderstorms and Rain
10:45 PM 66.2 °F 64.4 °F 94% 29.71 in 6.2 mi SSE 8.1 mph - N/A Rain , Thunderstorm Light Thunderstorms and Rain
11:15 PM 64.4 °F 62.6 °F 94% 29.71 in 6.2 mi SE 5.8 mph - N/A Rain , Thunderstorm Light Thunderstorms and Rain
11:45 PM 64.4 °F 62.6 °F 94% 29.71 in 6.2 mi SE 6.9 mph - N/A Rain , Thunderstorm Light Thunderstorms and Rain